Weather History for Clinton, MO

Change the Weather History Date:

Thursday, March 28, 2013

  Actual Average (KSZL) Record (KSZL)
Temperature  
Mean Temperature 55 °F -  
Max Temperature 66 °F 59 °F 79 °F (2012)
Min Temperature 44 °F 38 °F 30 °F (2011)
Degree Days  
Heating Degree Days 10    
Growing Degree Days 5 (Base 50)    
Moisture  
Dew Point 39 °F    
Average Humidity 57    
Maximum Humidity 77    
Minimum Humidity 42    
Precipitation  
Precipitation 0.00 in - - ()
Sea Level Pressure  
Sea Level Pressure 30.19 in    
Wind  
Wind Speed 4 mph (ESE)    
Max Wind Speed 10 mph    
Max Gust Speed -    
Visibility 10 miles    
Events Rain , Thunderstorm    
Averages and records for this station are not official NWS values.
T = Trace of Precipitation, MM = Missing Value Source: NWS Daily Summary

Daily Weather History Graph

Daily Weather History Graph

Search for Another Location

Airport:

Trip Planner

Search our weather history database for the weather conditions in past years. The results will help you decide how hot, cold, wet, or windy it might be!

Date:

Astronomy

Mar. 28, 2013 Rise Set
Actual Time 7:05 AM CDT 7:34 PM CDT
Civil Twilight 6:38 AM CDT 8:01 PM CDT
Nautical Twilight 6:07 AM CDT 8:32 PM CDT
Astronomical Twilight 5:35 AM CDT 9:04 PM CDT
Moon 9:25 PM CDT (3/28) 7:35 AM CDT (3/28)
Length of Visible Light 13h 22m
Length of Day
12h 29m
Full, 98% of the Moon is Illuminated
Mar 28
Full
Apr 2
Last Quarter
Apr 10
New
Apr 18
First Quarter
Apr 25
Full

Hourly Weather History & Observations

Time (CDT) Temp. Windchill Dew Point Humidity Pressure Visibility Wind Dir Wind Speed Gust Speed Precip Events Conditions
12:15 AM 46.4 °F 42.9 °F 33.8 °F 62% 30.24 in 10.0 mi East 6.9 mph - N/A   Overcast
12:35 AM 46.4 °F 42.9 °F 32.0 °F 57% 30.24 in 10.0 mi East 6.9 mph - N/A   Overcast
12:55 AM 46.4 °F 43.5 °F 32.0 °F 57% 30.24 in 10.0 mi ESE 5.8 mph - N/A   Overcast
1:15 AM 46.4 °F - 33.8 °F 62% 30.24 in 10.0 mi Calm Calm - N/A   Overcast
1:35 AM 46.4 °F 45.2 °F 32.0 °F 57% 30.24 in 10.0 mi East 3.5 mph - N/A   Overcast
1:55 AM 46.4 °F 43.5 °F 32.0 °F 57% 30.24 in 10.0 mi ESE 5.8 mph - N/A   Overcast
2:15 AM 46.4 °F 45.2 °F 32.0 °F 57% 30.23 in 10.0 mi ESE 3.5 mph - N/A   Overcast
2:35 AM 46.4 °F 43.5 °F 32.0 °F 57% 30.23 in 10.0 mi East 5.8 mph - N/A   Overcast
2:55 AM 46.4 °F 43.5 °F 32.0 °F 57% 30.23 in 10.0 mi ESE 5.8 mph - N/A   Overcast
3:15 AM 46.4 °F - 32.0 °F 57% 30.22 in 10.0 mi Calm Calm - N/A   Overcast
3:35 AM 44.6 °F 41.4 °F 32.0 °F 61% 30.22 in 10.0 mi ESE 5.8 mph - N/A   Overcast
3:55 AM 44.6 °F 41.4 °F 32.0 °F 61% 30.21 in 10.0 mi ESE 5.8 mph - N/A   Overcast
4:15 AM 44.6 °F - 32.0 °F 61% 30.21 in 10.0 mi Calm Calm - N/A   Overcast
4:35 AM 44.6 °F 43.1 °F 33.8 °F 66% 30.21 in 10.0 mi ESE 3.5 mph - N/A   Overcast
4:55 AM 44.6 °F 41.4 °F 32.0 °F 61% 30.21 in 10.0 mi ESE 5.8 mph - N/A   Overcast
5:15 AM 44.6 °F - 33.8 °F 66% 30.21 in 10.0 mi Calm Calm - N/A   Overcast
5:35 AM 44.6 °F 41.4 °F 33.8 °F 66% 30.21 in 10.0 mi ESE 5.8 mph - N/A   Overcast
5:55 AM 44.6 °F 41.4 °F 33.8 °F 66% 30.21 in 10.0 mi ESE 5.8 mph - N/A   Overcast
6:15 AM 44.6 °F 40.7 °F 33.8 °F 66% 30.21 in 10.0 mi ESE 6.9 mph - N/A   Overcast
6:35 AM 44.6 °F 40.7 °F 33.8 °F 66% 30.21 in 10.0 mi ESE 6.9 mph - N/A   Mostly Cloudy
7:15 AM 44.6 °F 41.4 °F 33.8 °F 66% 30.21 in 10.0 mi ESE 5.8 mph - N/A   Mostly Cloudy
7:35 AM 44.6 °F 43.1 °F 33.8 °F 66% 30.22 in 10.0 mi ESE 3.5 mph - N/A   Mostly Cloudy
7:55 AM 44.6 °F 41.4 °F 33.8 °F 66% 30.22 in 10.0 mi ESE 5.8 mph - N/A   Mostly Cloudy
8:15 AM 44.6 °F 42.2 °F 33.8 °F 66% 30.23 in 10.0 mi ESE 4.6 mph - N/A   Mostly Cloudy
8:35 AM 44.6 °F 40.7 °F 35.6 °F 71% 30.23 in 10.0 mi ESE 6.9 mph - N/A   Mostly Cloudy
8:55 AM 46.4 °F 42.9 °F 35.6 °F 66% 30.23 in 10.0 mi SE 6.9 mph - N/A   Mostly Cloudy
9:15 AM 46.4 °F 42.9 °F 35.6 °F 66% 30.24 in 10.0 mi SE 6.9 mph - N/A   Scattered Clouds
9:35 AM 48.2 °F - 35.6 °F 62% 30.23 in 10.0 mi SE 5.8 mph - N/A   Clear
9:55 AM 51.8 °F - 35.6 °F 54% 30.23 in 10.0 mi SSE 9.2 mph - N/A   Clear
10:15 AM 53.6 °F - 37.4 °F 54% 30.23 in 10.0 mi SE 10.4 mph - N/A   Clear
11:15 AM 55.4 °F - 37.4 °F 51% 30.23 in 10.0 mi South 5.8 mph - N/A   Clear
11:35 AM 55.4 °F - 37.4 °F 51% 30.23 in 10.0 mi SE 6.9 mph - N/A   Clear
11:55 AM 57.2 °F - 37.4 °F 48% 30.23 in 10.0 mi Calm Calm - N/A   Clear
12:15 PM 59.0 °F - 39.2 °F 48% 30.22 in 9.0 mi South 5.8 mph - N/A   Clear
12:35 PM 59.0 °F - 37.4 °F 45% 30.22 in 10.0 mi Calm Calm - N/A   Clear
12:55 PM 60.8 °F - 39.2 °F 45% 30.21 in 10.0 mi SE 4.6 mph - N/A   Clear
1:15 PM 60.8 °F - 39.2 °F 45% 30.20 in 10.0 mi Calm Calm - N/A   Clear
1:35 PM 60.8 °F - 39.2 °F 45% 30.20 in 10.0 mi South 4.6 mph - N/A   Clear
1:55 PM 60.8 °F - 39.2 °F 45% 30.19 in 10.0 mi Calm Calm - N/A   Clear
2:15 PM 62.6 °F - 39.2 °F 42% 30.19 in 10.0 mi Calm Calm - N/A   Clear
2:35 PM 62.6 °F - 39.2 °F 42% 30.18 in 10.0 mi Calm Calm - N/A   Clear
2:55 PM 62.6 °F - 41.0 °F 45% 30.18 in 9.0 mi Calm Calm - N/A   Clear
3:15 PM 64.4 °F - 41.0 °F 42% 30.17 in 10.0 mi Calm Calm - N/A   Clear
3:35 PM 64.4 °F - 41.0 °F 42% 30.16 in 10.0 mi Calm Calm - N/A   Clear
3:55 PM 64.4 °F - 41.0 °F 42% 30.15 in 10.0 mi East 3.5 mph - N/A   Clear
4:15 PM 64.4 °F - 41.0 °F 42% 30.14 in 10.0 mi Calm Calm - N/A   Clear
4:35 PM 64.4 °F - 42.8 °F 45% 30.14 in 10.0 mi ENE 4.6 mph - N/A   Clear
4:55 PM 64.4 °F - 42.8 °F 45% 30.13 in 10.0 mi Calm Calm - N/A   Partly Cloudy
5:15 PM 64.4 °F - 42.8 °F 45% 30.13 in 10.0 mi ENE 5.8 mph - N/A   Mostly Cloudy
5:35 PM 64.4 °F - 42.8 °F 45% 30.13 in 10.0 mi SSE 5.8 mph - N/A   Mostly Cloudy
5:55 PM 66.2 °F - 42.8 °F 43% 30.13 in 10.0 mi Calm Calm - N/A   Mostly Cloudy
6:15 PM 64.4 °F - 42.8 °F 45% 30.13 in 10.0 mi Calm Calm - N/A   Scattered Clouds
6:35 PM 64.4 °F - 44.6 °F 49% 30.13 in 10.0 mi Calm Calm - N/A   Mostly Cloudy
6:55 PM 62.6 °F - 46.4 °F 55% 30.14 in 10.0 mi Calm Calm - N/A   Overcast
7:15 PM 62.6 °F - 46.4 °F 55% 30.14 in 10.0 mi Calm Calm - N/A   Overcast
7:35 PM 62.6 °F - 46.4 °F 55% 30.15 in 10.0 mi NNE 6.9 mph - N/A   Overcast
7:55 PM 60.8 °F - 44.6 °F 55% 30.15 in 10.0 mi NE 5.8 mph - N/A   Overcast
8:15 PM 59.0 °F - 44.6 °F 59% 30.15 in 10.0 mi Calm Calm - N/A   Scattered Clouds
8:35 PM 59.0 °F - 44.6 °F 59% 30.15 in 10.0 mi NE 5.8 mph - N/A   Mostly Cloudy
8:55 PM 57.2 °F - 44.6 °F 63% 30.16 in 10.0 mi Calm Calm - N/A   Mostly Cloudy
9:15 PM 57.2 °F - 44.6 °F 63% 30.16 in 10.0 mi East 3.5 mph - N/A   Mostly Cloudy
9:35 PM 57.2 °F - 44.6 °F 63% 30.16 in 10.0 mi ENE 4.6 mph - N/A   Scattered Clouds
9:55 PM 55.4 °F - 44.6 °F 67% 30.16 in 10.0 mi Calm Calm - N/A   Mostly Cloudy
10:15 PM 55.4 °F - 44.6 °F 67% 30.16 in 8.0 mi ENE 4.6 mph - N/A Rain Light Rain
10:35 PM 55.4 °F - 46.4 °F 72% 30.17 in 10.0 mi Calm Calm - N/A   Mostly Cloudy
10:55 PM 53.6 °F - 44.6 °F 72% 30.17 in 10.0 mi NE 6.9 mph - N/A   Scattered Clouds
11:15 PM 53.6 °F - 46.4 °F 77% 30.16 in 10.0 mi NE 6.9 mph - N/A   Partly Cloudy
11:35 PM 53.6 °F - 44.6 °F 72% 30.16 in 10.0 mi NE 5.8 mph - N/A   Scattered Clouds
11:55 PM 53.6 °F - 46.4 °F 77% 30.15 in 10.0 mi ENE 5.8 mph - N/A Thunderstorm Thunderstorm